Portada
METAR-TAF:

METAR-TAF

Aeropuertos :

Aeropuerto Vanguardia

Villavicencio, Colombia

latitud: 04-10N, longitud: 073-37W, altitud: 423 m

Observación

El informe se hizo hace 33 minutos, a las 14:00 UTC
Viento calma
Temperatura 24°C
Humedad 89%
Presión 1016 hPa
Visibilidad: 8000 m
Nubes dispersas a una altura de 1000 ft
Cielo nuboso a una altura de 9000 ft
chaparrones en las proximidades

METAR: SKVV 241400Z 00000KT 8000 VCSH SCT010 BKN090 24/22 A2999

Hora: 09:33 (14:33 UTC)


TAF: falta

Observaciones y pronósticos meteorológicos de más de 4000 aeropuertos (mensajes METAR y TAF).

Los puntos amarillos y rojos representan las estaciones disponibles.

Ponga el ratón en el punto deseado para ver el nombre de la estación.

Haga clic para ver las observaciones y los pronósticos meteorológicos.

Para cambiar el mapa : haga clic en los botones verdes con una cruz de color negro para hacer un zoom, en el botón verde con un guión para alejar o en las flechas verdes para mapas adyacentes.


METAR-TAF: